• Processing (Info)

  • MPEC 2014-L31 : 2014 LO14

    The following Minor Planet Electronic Circular may be linked-to from your own Web pages, but must not otherwise be redistributed electronically.

    A form allowing access to any MPEC is at the bottom of this page.


    Read MPEC 2014-L30 Read MPEC 2014-L32


    M.P.E.C. 2014-L31                                Issued 2014 June 6, 02:47 UT
    
         The Minor Planet Electronic Circulars contain information on unusual
             minor planets and routine data on comets.  They are published
       on behalf of Commission 20 of the International Astronomical Union by the
              Minor Planet Center, Smithsonian Astrophysical Observatory,
                              Cambridge, MA 02138, U.S.A.
    
                 Prepared using the Tamkin Foundation Computer Network
    
                                  MPC@CFA.HARVARD.EDU
                URL http://www.minorplanetcenter.net/    ISSN 1523-6714
    
                                       2014 LO14
    
    Observations:
         K14L14O* C2014 06 02.31376 14 01 18.640-30 31 31.25         21.2 wLEL031F51
         K14L14O  C2014 06 02.33582 14 01 17.020-30 31 27.72         21.3 wLEL031F51
         K14L14O  C2014 06 02.34686 14 01 16.214-30 31 26.00         21.6 wLEL031F51
         K14L14O KC2014 06 03.01025214 00 33.91 -30 29 34.8          22.0 VqEL031W87
         K14L14O KC2014 06 03.01679714 00 33.45 -30 29 33.8          22.2 VqEL031W87
         K14L14O KC2014 06 03.02114814 00 33.16 -30 29 33.3          22.0 VqEL031W87
         K14L14O =C2014 06 03.39530 14 00 08.67 -30 28 47.5          20.7  tEL031568
         K14L14O =C2014 06 03.39655 14 00 08.59 -30 28 47.3          20.9  tEL031568
         K14L14O =C2014 06 03.39782 14 00 08.50 -30 28 47.0          21.4  tEL031568
         K14L14O |C2014 06 06.08105 13 57 33.48 -30 21 34.5          21.5 VuEL031807
         K14L14O |C2014 06 06.08727 13 57 33.14 -30 21 33.1          21.8 VuEL031807
         K14L14O |C2014 06 06.09475 13 57 32.65 -30 21 31.5          21.5 VuEL031807
    
    Observer details:
    568 Mauna Kea.  Observers R. J. Wainscoat, P. Forshay.  Measurers P. Veres,
        R. J. Wainscoat.  3.6-m Canada-France-Hawaii Telescope + CCD.
    807 Cerro Tololo.  Observers T. Linder, R. Holmes.  Measurers T. Linder,
        R. Holmes, C. Smith.  0.41-m f/11 Ritchey-Chretien + CCD.
    F51 Pan-STARRS 1, Haleakala.  Observers N. Primak, A. Schultz, T. Goggia,
        M. Willman.  Measurer PS1 Science Consortium.  1.8-m Ritchey-Chretien
        + CCD.
    W87 Cerro Tololo-LCOGT C.  Observer T. Lister.  1.0-m f/8 Ritchey-Chretien
        + CCD.
    
    Orbital elements:
    2014 LO14                                                Earth MOID = 0.2224 AU
    Epoch 2014 May 23.0 TT = JDT 2456800.5                  MPC
    M 326.80134              (2000.0)            P               Q
    n   0.31782529     Peri.  318.00334     +0.65028778     +0.75952501
    a   2.1265573      Node   352.51187     -0.66091495     +0.55540490
    e   0.4261892      Incl.    6.93452     -0.37458942     +0.33859587
    P   3.10           H   20.1           G   0.15           U   8
    Residuals in seconds of arc
    140602 F51  0.1+  0.2-    140603 W87  0.1-  0.0     140603 568  0.0   0.0
    140602 F51  0.1-  0.1+    140603 W87  0.0   0.1-    140606 807  0.1-  0.3-
    140602 F51  0.1-  0.1+    140603 568  0.0   0.1-    140606 807  0.3+  0.0
    140603 W87  0.1-  0.2-    140603 568  0.1+  0.1-    140606 807  0.2-  0.4+
    
    Ephemeris:
    2014 LO14                a,e,i = 2.13, 0.43, 7                   q = 1.2202
    Date    TT    R. A. (2000) Decl.     Delta      r     Elong.  Phase     V
    2014 05 07    14 40 04.8 -30 26 43   0.6669  1.6635   165.8     8.5    20.9
    ...
    2014 05 22    14 16 28.7 -30 49 50   0.6031  1.5815   155.7    15.3    20.8
    ...
    2014 05 30    14 05 13.2 -30 38 54   0.5851  1.5387   147.2    20.9    20.9
    ...
    2014 06 05    13 58 33.3 -30 24 27   0.5776  1.5073   140.9    25.1    21.0
    2014 06 06    13 57 37.9 -30 21 47   0.5768  1.5021   139.8    25.8    21.0
    2014 06 07    13 56 46.0 -30 19 06   0.5761  1.4969   138.8    26.5    21.0
    ...
    2014 06 13    13 52 51.4 -30 03 10   0.5737  1.4665   132.7    30.6    21.0
    ...
    2014 06 21    13 51 15.1 -29 45 49   0.5748  1.4274   125.3    35.5    21.1
    ...
    2014 07 06    13 59 50.3 -29 38 50   0.5839  1.3600   113.6    43.2    21.3
    
    A. U. Tomatic                (C) Copyright 2014 MPC           M.P.E.C. 2014-L31
    

    Read MPEC 2014-L30 Read MPEC 2014-L32


    MPEC number:

    Enter an MPEC number in one of the following forms:

    • 1997-B01 (the full form)
    • J97B01 (the packed version of the full form)
    • B01 (the abbreviated form)